When you browse on this site, cookies collect data to enhance your experience and personalize the content and advertising you see.
Visit our Privacy Policy to learn more. By continuing to use the site, you agree to this use of cookies and data.
  • In Czech Republic
  • List of Countries
  • For 7 days
  • Water Temperature
  • Satellite Maps
  • Weather Map
  • Weather Widgets
  • user-avatar
    Login

    Hourly Weather Changchun

    Today, 17 January, Thursday

    Time Temperature Precipitation Wind Pressure Humidity
    00:00 -12°C° 0 mm 1 mps 744 mmHg 53%
    01:00 -14°C° 0 mm 2 mps 745 mmHg 56%
    02:00 -16°C° 0 mm 3 mps 745 mmHg 59%
    03:00 -16°C° 0 mm 2 mps 746 mmHg 61%
    04:00 -17°C° 0 mm 2 mps 746 mmHg 62%
    05:00 -17°C° 0 mm 2 mps 746 mmHg 63%
    06:00 -18°C° 0 mm 2 mps 747 mmHg 63%
    07:00 -18°C° 0 mm 2 mps 748 mmHg 63%
    08:00 -16°C° 0 mm 1 mps 748 mmHg 63%
    09:00 -16°C° 0 mm 1 mps 749 mmHg 54%
    10:00 -17°C° 0 mm 2 mps 749 mmHg 46%
    11:00 -16°C° 0 mm 2 mps 750 mmHg 38%
    12:00 -15°C° 0 mm 2 mps 750 mmHg 34%
    13:00 -15°C° 0 mm 2 mps 750 mmHg 31%
    14:00 -14°C° 0 mm 2 mps 750 mmHg 27%
    15:00 -13°C° 0 mm 1 mps 750 mmHg 29%
    16:00 -13°C° 0 mm 1 mps 750 mmHg 30%
    17:00 -14°C° 0 mm 1 mps 750 mmHg 32%
    18:00 -14°C° 0 mm 1 mps 751 mmHg 34%
    19:00 -14°C° 0 mm 1 mps 751 mmHg 36%
    20:00 -15°C° 0 mm 1 mps 751 mmHg 38%
    21:00 -15°C° 0 mm 1 mps 751 mmHg 40%
    22:00 -15°C° 0 mm 1 mps 751 mmHg 42%
    23:00 -15°C° 0 mm 1 mps 751 mmHg 44%

    Tomorrow, 18 January, Friday

    Time Temperature Precipitation Wind Pressure Humidity
    00:00 -15°C° 0 mm 1 mps 751 mmHg 45%
    01:00 -15°C° 0 mm 1 mps 751 mmHg 45%
    02:00 -15°C° 0 mm 1 mps 751 mmHg 45%
    03:00 -16°C° 0 mm 1 mps 750 mmHg 45%
    04:00 -16°C° 0 mm 1 mps 750 mmHg 44%
    05:00 -16°C° 0 mm 1 mps 750 mmHg 43%
    06:00 -18°C° 0 mm 2 mps 750 mmHg 42%
    07:00 -17°C° 0 mm 2 mps 750 mmHg 41%
    08:00 -17°C° 0 mm 2 mps 750 mmHg 40%
    09:00 -16°C° 0 mm 2 mps 750 mmHg 35%
    10:00 -14°C° 0 mm 2 mps 749 mmHg 30%
    11:00 -12°C° 0 mm 2 mps 749 mmHg 24%
    12:00 -10°C° 0 mm 2 mps 749 mmHg 24%
    13:00 -9°C° 0 mm 2 mps 748 mmHg 23%
    14:00 -8°C° 0 mm 2 mps 748 mmHg 23%
    15:00 -9°C° 0 mm 2 mps 748 mmHg 27%
    16:00 -10°C° 0 mm 2 mps 748 mmHg 31%
    17:00 -12°C° 0 mm 2 mps 748 mmHg 35%
    18:00 -10°C° 0 mm 1 mps 748 mmHg 37%
    19:00 -11°C° 0 mm 1 mps 748 mmHg 39%
    20:00 -11°C° 0 mm 1 mps 748 mmHg 41%
    21:00 -11°C° 0 mm 1 mps 747 mmHg 42%
    22:00 -12°C° 0 mm 0 mps 747 mmHg 43%
    23:00 -12°C° 0 mm 0 mps 747 mmHg 44%

    Day after tomorrow, 19 January, Saturday

    Time Temperature Precipitation Wind Pressure Humidity
    00:00 -12°C° 0 mm 0 mps 747 mmHg 45%
    01:00 -12°C° 0 mm 1 mps 747 mmHg 45%
    02:00 -13°C° 0 mm 1 mps 747 mmHg 45%
    03:00 -13°C° 0 mm 1 mps 747 mmHg 44%
    04:00 -13°C° 0 mm 1 mps 747 mmHg 43%
    05:00 -15°C° 0 mm 2 mps 747 mmHg 42%
    06:00 -15°C° 0 mm 2 mps 747 mmHg 41%
    07:00 -16°C° 0 mm 2 mps 747 mmHg 41%
    08:00 -16°C° 0 mm 2 mps 747 mmHg 40%
    09:00 -15°C° 0 mm 3 mps 747 mmHg 40%
    10:00 -15°C° 0 mm 4 mps 747 mmHg 39%
    11:00 -12°C° 0 mm 4 mps 747 mmHg 39%
    12:00 -12°C° 0 mm 5 mps 746 mmHg 40%
    13:00 -11°C° 0 mm 5 mps 746 mmHg 41%
    14:00 -10°C° 0 mm 6 mps 745 mmHg 42%
    15:00 -11°C° 0 mm 5 mps 745 mmHg 44%
    16:00 -11°C° 0 mm 4 mps 745 mmHg 47%
    17:00 -11°C° 0 mm 4 mps 745 mmHg 49%
    18:00 -11°C° 0 mm 4 mps 745 mmHg 49%
    19:00 -12°C° 0 mm 4 mps 745 mmHg 49%
    20:00 -12°C° 0 mm 4 mps 745 mmHg 49%
    21:00 -14°C° 0 mm 4 mps 745 mmHg 50%
    22:00 -13°C° 0 mm 3 mps 745 mmHg 52%
    23:00 -14°C° 0 mm 3 mps 745 mmHg 53%

    20 January, Sunday

    Time Temperature Precipitation Wind Pressure Humidity
    00:00 -14°C° 0 mm 3 mps 746 mmHg 55%
    01:00 -15°C° 0 mm 3 mps 746 mmHg 58%
    02:00 -15°C° 0 mm 3 mps 747 mmHg 60%
    03:00 -16°C° 0 mm 3 mps 747 mmHg 61%
    04:00 -16°C° 0 mm 3 mps 747 mmHg 62%
    05:00 -17°C° 0 mm 3 mps 747 mmHg 62%
    06:00 -17°C° 0 mm 3 mps 748 mmHg 61%
    07:00 -17°C° 0 mm 3 mps 748 mmHg 59%
    08:00 -17°C° 0 mm 3 mps 748 mmHg 58%
    09:00 -16°C° 0 mm 4 mps 747 mmHg 50%
    10:00 -14°C° 0 mm 5 mps 747 mmHg 42%
    11:00 -12°C° 0 mm 6 mps 747 mmHg 33%
    12:00 -12°C° 0 mm 7 mps 746 mmHg 31%
    13:00 -11°C° 0 mm 7 mps 745 mmHg 29%
    14:00 -11°C° 0 mm 8 mps 744 mmHg 26%
    15:00 -11°C° 0 mm 7 mps 743 mmHg 27%
    16:00 -10°C° 0 mm 6 mps 743 mmHg 28%
    17:00 -11°C° 0 mm 5 mps 743 mmHg 29%
    18:00 -11°C° 0 mm 5 mps 743 mmHg 30%
    19:00 -11°C° 0 mm 5 mps 742 mmHg 30%
    20:00 -11°C° 0 mm 5 mps 742 mmHg 30%
    21:00 -10°C° 0 mm 4 mps 742 mmHg 32%
    22:00 -11°C° 0 mm 4 mps 741 mmHg 33%
    23:00 -11°C° 0 mm 4 mps 741 mmHg 35%

    21 January, Monday

    Time Temperature Precipitation Wind Pressure Humidity
    00:00 -12°C° 0 mm 4 mps 741 mmHg 38%
    01:00 -12°C° 0 mm 4 mps 740 mmHg 42%
    02:00 -12°C° 0 mm 3 mps 740 mmHg 45%
    03:00 -12°C° 0 mm 3 mps 740 mmHg 45%
    04:00 -12°C° 0 mm 3 mps 740 mmHg 46%
    05:00 -10°C° 0 mm 2 mps 740 mmHg 46%
    06:00 -12°C° 0 mm 2 mps 740 mmHg 48%
    07:00 -12°C° 0 mm 2 mps 740 mmHg 50%
    08:00 -12°C° 0 mm 2 mps 741 mmHg 52%
    09:00 -13°C° 0 mm 3 mps 741 mmHg 55%
    10:00 -12°C° 0 mm 3 mps 741 mmHg 58%
    11:00 -11°C° 0 mm 4 mps 742 mmHg 62%
    12:00 -11°C° 0 mm 4 mps 742 mmHg 56%
    13:00 -11°C° 0 mm 4 mps 742 mmHg 50%
    14:00 -11°C° 0 mm 4 mps 742 mmHg 44%
    15:00 -11°C° 0 mm 4 mps 743 mmHg 44%
    16:00 -12°C° 0 mm 3 mps 743 mmHg 44%
    17:00 -13°C° 0 mm 3 mps 743 mmHg 45%
    18:00 -13°C° 0 mm 3 mps 744 mmHg 46%
    19:00 -13°C° 0 mm 2 mps 744 mmHg 48%
    20:00 -14°C° 0 mm 2 mps 744 mmHg 50%
    21:00 -14°C° 0 mm 2 mps 744 mmHg 51%
    22:00 -14°C° 0 mm 2 mps 744 mmHg 51%
    23:00 -13°C° 0 mm 1 mps 745 mmHg 52%

    22 January, Tuesday

    Time Temperature Precipitation Wind Pressure Humidity
    00:00 -13°C° 0 mm 1 mps 745 mmHg 53%
    01:00 -15°C° 0 mm 2 mps 744 mmHg 53%
    02:00 -16°C° 0 mm 2 mps 744 mmHg 54%
    03:00 -16°C° 0 mm 2 mps 744 mmHg 56%
    04:00 -16°C° 0 mm 2 mps 744 mmHg 59%
    05:00 -17°C° 0 mm 2 mps 744 mmHg 61%
    06:00 -17°C° 0 mm 2 mps 745 mmHg 62%
    07:00 -16°C° 0 mm 2 mps 745 mmHg 64%
    08:00 -16°C° 0 mm 2 mps 745 mmHg 65%
    09:00 -15°C° 0 mm 2 mps 746 mmHg 60%
    10:00 -14°C° 0 mm 3 mps 746 mmHg 55%
    11:00 -14°C° 0 mm 4 mps 746 mmHg 50%
    12:00 -12°C° 0 mm 4 mps 746 mmHg 46%
    13:00 -13°C° 0 mm 5 mps 746 mmHg 42%
    14:00 -12°C° 0 mm 5 mps 745 mmHg 39%
    15:00 -13°C° 0 mm 5 mps 746 mmHg 41%
    16:00 -12°C° 0 mm 4 mps 746 mmHg 43%
    17:00 -13°C° 0 mm 3 mps 746 mmHg 45%
    18:00 -13°C° 0 mm 3 mps 747 mmHg 46%
    19:00 -14°C° 0 mm 3 mps 747 mmHg 48%
    20:00 -13°C° 0 mm 2 mps 747 mmHg 50%
    21:00 -14°C° 0 mm 2 mps 748 mmHg 51%
    22:00 -14°C° 0 mm 2 mps 748 mmHg 53%
    23:00 -14°C° 0 mm 2 mps 748 mmHg 54%
    Show more